Weather History for Monterey, CA

Change the Weather History Date:

Wednesday, February 20, 2013

  Actual Average Record
Temperature  
Mean Temperature 44 °F 53 °F  
Max Temperature 53 °F 61 °F 71 °F (2014)
Min Temperature 35 °F 45 °F 34 °F (2006)
Degree Days  
Heating Degree Days 21    
Month to date heating degree days 313  
Since 1 July heating degree days 2138  
Cooling Degree Days 0    
Month to date cooling degree days 0  
Year to date cooling degree days 0  
Moisture  
Dew Point 39 °F    
Average Humidity 78    
Maximum Humidity 92    
Minimum Humidity 63    
Precipitation  
Precipitation 0.00 in - 0.45 in (1999)
Month to date precipitation 0.74  
Year to date precipitation 1.55  
Since 1 July precipitation 9.79  
Sea Level Pressure  
Sea Level Pressure 30.03 in    
Wind  
Wind Speed 7 mph (West)    
Max Wind Speed 16 mph    
Max Gust Speed 28 mph    
Visibility 10 miles    
Events      
T = Trace of Precipitation, MM = Missing Value Source: NWS Daily Summary

Daily Weather History Graph

Daily Weather History Graph

Search for Another Location

Airport:

Trip Planner

Search our weather history database for the weather conditions in past years. The results will help you decide how hot, cold, wet, or windy it might be!

Date:

Astronomy

Feb. 20, 2013 Rise Set
Actual Time 6:49 AM PST 5:53 PM PST
Civil Twilight 6:22 AM PST 6:19 PM PST
Nautical Twilight 5:52 AM PST 6:49 PM PST
Astronomical Twilight 5:22 AM PST 7:19 PM PST
Moon 1:24 PM PST (2/20) 3:08 AM PST (2/20)
Length of Visible Light 11h 56m
Length of Day
11h 04m
Waxing Gibbous, 77% of the Moon is Illuminated
Feb 20
Waxing Gibbous
Feb 25
Full
Mar 4
Last Quarter
Mar 11
New
Mar 19
First Quarter

Hourly Weather History & Observations

Time (PST) Temp. Windchill Dew Point Humidity Pressure Visibility Wind Dir Wind Speed Gust Speed Precip Events Conditions
1:54 AM 37.9 °F - 33.1 °F 83% 29.92 in 10.0 mi Calm Calm - N/A   Scattered Clouds
2:54 AM 35.1 °F 31.0 °F 33.1 °F 92% 29.94 in 10.0 mi East 4.6 mph - N/A   Clear
3:54 AM 35.1 °F - 33.1 °F 92% 29.94 in 10.0 mi Calm Calm - N/A   Clear
4:54 AM 37.9 °F - 34.0 °F 86% 29.96 in 10.0 mi Calm Calm - N/A   Clear
5:54 AM 45.0 °F 40.1 °F 37.0 °F 74% 29.98 in 10.0 mi West 9.2 mph - N/A   Clear
6:54 AM 37.9 °F - 36.0 °F 93% 29.99 in 10.0 mi Calm Calm - N/A   Clear
7:37 AM 44.6 °F 41.4 °F 39.2 °F 81% 29.97 in 10.0 mi SW 5.8 mph - N/A   Mostly Cloudy
7:54 AM 45.0 °F 41.2 °F 39.9 °F 82% 30.01 in 10.0 mi West 6.9 mph - N/A   Mostly Cloudy
8:28 AM 46.4 °F 41.9 °F 39.2 °F 76% 29.98 in 10.0 mi West 9.2 mph 16.1 mph N/A   Scattered Clouds
8:54 AM 48.0 °F - 39.9 °F 74% 30.03 in 10.0 mi West 6.9 mph - N/A   Partly Cloudy
9:54 AM 48.9 °F - 39.9 °F 71% 30.05 in 10.0 mi WSW 4.6 mph - N/A   Clear
10:54 AM 50.0 °F - 41.0 °F 71% 30.06 in 10.0 mi West 9.2 mph - N/A   Scattered Clouds
11:54 AM 52.0 °F - 42.1 °F 69% 30.06 in 10.0 mi WNW 11.5 mph - N/A   Clear
12:54 PM 53.1 °F - 42.1 °F 66% 30.06 in 10.0 mi West 13.8 mph 21.9 mph N/A   Clear
1:54 PM 52.0 °F - 41.0 °F 66% 30.05 in 10.0 mi West 16.1 mph 25.3 mph N/A   Clear
2:54 PM 52.0 °F - 41.0 °F 66% 30.05 in 10.0 mi West 13.8 mph 23.0 mph N/A   Clear
3:54 PM 52.0 °F - 39.0 °F 61% 30.05 in 10.0 mi West 10.4 mph 20.7 mph N/A   Clear
4:54 PM 50.0 °F - 39.9 °F 68% 30.06 in 10.0 mi West 10.4 mph 23.0 mph N/A   Clear
5:41 PM 48.2 °F - 41.0 °F 76% 30.03 in 10.0 mi WSW 11.5 mph 21.9 mph N/A   Mostly Cloudy
5:54 PM 48.9 °F - 41.0 °F 74% 30.07 in 10.0 mi WSW 9.2 mph 27.6 mph N/A   Mostly Cloudy
6:54 PM 48.9 °F - 42.1 °F 77% 30.09 in 10.0 mi Variable 3.5 mph - N/A   Overcast
7:54 PM 48.9 °F - 42.1 °F 77% 30.11 in 10.0 mi Variable 5.8 mph - N/A   Overcast
8:54 PM 48.9 °F - 42.1 °F 77% 30.13 in 10.0 mi West 12.7 mph 19.6 mph N/A   Overcast
9:54 PM 48.9 °F - 42.1 °F 77% 30.14 in 10.0 mi West 12.7 mph - N/A   Overcast
11:54 PM 48.9 °F - 42.1 °F 77% 30.14 in 10.0 mi West 11.5 mph 18.4 mph N/A   Overcast